Weather reports worldwide

Advertisment
Dresden-Klotzsche, Germany (10488): temperature & dewpoint: 20.09.2018 17:00:00 - 26.09.2018 17:00:00 (CEST)Dresden-Klotzsche, Germany (10488): temperature 5cm & temperature -5cm: 20.09.2018 17:00:00 - 26.09.2018 17:00:00 (CEST)Dresden-Klotzsche, Germany (10488): temperature -20cm & temperature -100cm: 20.09.2018 17:00:00 - 26.09.2018 17:00:00 (CEST)Dresden-Klotzsche, Germany (10488): wind speed & gusts: 20.09.2018 17:00:00 - 26.09.2018 17:00:00 (CEST)Dresden-Klotzsche, Germany (10488): wind direction: 20.09.2018 17:00:00 - 26.09.2018 17:00:00 (CEST)Dresden-Klotzsche, Germany (10488): reduced air pressure: 20.09.2018 17:00:00 - 26.09.2018 17:00:00 (CEST)Dresden-Klotzsche, Germany (10488): visibility: 20.09.2018 17:00:00 - 26.09.2018 17:00:00 (CEST)Dresden-Klotzsche, Germany (10488): sunshine duration: 20.09.2018 17:00:00 - 26.09.2018 17:00:00 (CEST)Dresden-Klotzsche, Germany (10488): precipitation: 20.09.2018 17:00:00 - 26.09.2018 17:00:00 (CEST)
Date & Time tt [°C] td [°C] tt 5cm [°C] tt -5cm [°C] tt -20cm [°C] tt -100cm [°C] ff [km/h] ff [kn] fx [km/h] fx [kn] dd ppp [hPa] vv [km] sd [min] rr [mm]
26.09.2018 17:00:00 15,9 2,4 16,2 16,4 14,0 16,5 13 7 25 14 WSW 1031,0 65 8 0,0
26.09.2018 16:00:00 16,5 1,6 18,4 16,6 13,5 16,5 13 7 26 14 W 1031,7 60 54 0,0
26.09.2018 15:00:00 16,5 -0,5 19,7 16,2 12,9 16,6 14 8 24 13 S 1032,6 65 60 0,0
26.09.2018 14:00:00 15,5 -1,1 18,7 15,5 12,3 16,6 16 9 29 15 S 1033,5 10 55 0,0
26.09.2018 13:00:00 14,8 -0,6 20,6 14,2 11,6 16,6 15 8 31 17 SW 1034,5 10 60 0,0
26.09.2018 12:00:00 14,0 -1,2 19,2 12,4 11,0 16,6 15 8 26 14 SSW 1035,5 10 58 0,0
26.09.2018 11:00:00 11,6 1,2 14,8 10,3 10,7 16,7 21 11 22 12 SSW 1035,9 10 60 0,0
26.09.2018 10:00:00 8,8 1,7 11,1 8,3 10,6 16,7 16 9 29 16 S 1036,8 10 28 0,0
26.09.2018 09:00:00 4,9 1,5 5,1 7,5 10,7 16,7 16 9 21 11 S 1036,9 10 55 0,0
26.09.2018 08:00:00 3,0 1,4 3,4 6,8 10,9 16,7 12 7 21 11 S 1037,6 55 15 0,0
26.09.2018 07:00:00 2,2 0,8 0,8 6,9 11,1 16,7 16 9 21 11 S 1037,8 55 0 0,0
26.09.2018 06:00:00 2,3 0,9 0,9 7,2 11,4 16,8 13 7 22 12 S 1038,0 10 0 0,0
26.09.2018 05:00:00 2,3 1,2 1,0 7,6 11,7 16,8 15 8 22 12 S 1038,3 10 0 0,0
26.09.2018 04:00:00 2,9 1,2 1,5 7,9 11,9 16,8 11 6 21 11 S 1039,2 10 0 0,0
26.09.2018 03:00:00 4,0 1,2 2,5 8,3 12,2 16,8 13 7 21 11 S 1039,0 10 0 0,0
26.09.2018 02:00:00 4,7 1,4 3,0 8,7 12,5 16,9 16 9 21 11 S 1039,3 50 0 0,0
26.09.2018 01:00:00 5,0 1,6 3,0 9,2 12,8 16,9 14 7 18 10 S 1039,7 50 0 0,0
26.09.2018 00:00:00 5,7 2,0 3,8 9,7 13,1 16,9 15 8 18 10 S 1039,7 50 0 0,0
25.09.2018 23:00:00 6,1 2,1 3,6 10,3 13,5 17,0 11 6 15 8 S 1039,7 50 0 0,0
25.09.2018 22:00:00 7,2 1,7 3,4 11,0 13,8 17,0 9 5 11 6 SW 1039,6 10 0 0,0
25.09.2018 21:00:00 8,9 2,0 4,5 11,8 14,0 17,0 5 3 9 5 W 1039,3 50 0 0,0
25.09.2018 20:00:00 9,8 2,0 5,7 12,7 14,2 17,1 5 3 11 6 W 1038,7 10 0 0,0
25.09.2018 19:00:00 10,8 1,5 7,7 13,7 14,3 17,1 5 3 22 12 W 1038,1 10 42 0,0
25.09.2018 18:00:00 12,3 0,7 13,3 14,5 14,2 17,1 15 8 26 14 NW 1037,4 60 55 0,0
25.09.2018 17:00:00 12,3 0,6 14,4 15,0 14,0 17,2 13 7 25 14 NW 1037,6 60 38 0,0
25.09.2018 16:00:00 11,8 0,9 15,2 15,5 13,5 17,2 15 8 29 15 NW 1037,9 10 55 0,0
25.09.2018 15:00:00 11,5 0,5 14,9 15,2 13,0 17,2 20 11 33 18 NNW 1038,1 50 58 0,0
25.09.2018 14:00:00 11,4 0,1 16,5 14,0 12,5 17,3 16 9 34 18 NNW 1038,2 10 55 0,0
25.09.2018 13:00:00 10,9 2,5 14,7 13,0 12,0 17,3 18 10 29 16 WNW 1038,1 10 37 0,0
25.09.2018 12:00:00 9,3 4,0 12,5 11,7 11,7 17,3 19 10 29 16 WNW 1037,9 40 25 0,0
25.09.2018 11:00:00 8,7 3,8 14,0 10,7 11,4 17,4 15 8 29 15 NW 1037,7 10 44 0,0
25.09.2018 10:00:00 7,5 3,7 10,2 9,4 11,3 17,4 18 10 29 15 NW 1037,5 10 40 0,0
25.09.2018 09:00:00 6,1 3,5 7,7 8,1 11,4 17,4 15 8 22 12 WNW 1036,9 10 60 0,0
25.09.2018 08:00:00 4,8 3,2 3,8 7,7 11,6 17,5 11 6 21 11 WNW 1036,1 25 24 0,0
25.09.2018 07:00:00 4,5 3,0 2,8 7,8 11,8 17,5 9 5 22 12 W 1035,5 10 0 0,0
25.09.2018 06:00:00 4,8 3,1 3,2 8,1 12,0 17,5 14 8 22 12 WNW 1034,8 50 0 0,0
25.09.2018 05:00:00 4,9 3,2 3,2 8,4 12,2 17,6 11 6 23 13 W 1034,2 10 0 0,0
25.09.2018 04:00:00 5,3 3,6 3,8 8,6 12,4 17,6 13 7 26 14 WNW 1033,6 10 0 0,0
25.09.2018 03:00:00 5,5 3,5 4,0 8,9 12,6 17,6 16 9 31 17 WNW 1033,6 55 0 0,0
25.09.2018 02:00:00 5,9 3,7 4,3 9,2 12,8 17,6 18 10 31 17 W 1033,1 60 0 0,0
25.09.2018 01:00:00 6,4 3,8 4,9 9,6 13,1 17,7 21 11 33 18 WNW 1032,5 60 0 0,0
25.09.2018 00:00:00 6,9 4,2 5,3 9,9 13,3 17,7 20 11 34 18 WNW 1031,9 55 0 0,0
24.09.2018 23:00:00 7,3 4,4 5,8 10,3 13,5 17,8 18 10 32 17 WNW 1031,0 10 0 0,0
24.09.2018 22:00:00 7,7 4,5 6,2 10,7 13,8 17,8 21 12 36 19 W 1030,2 55 0 0,0
24.09.2018 21:00:00 8,0 4,4 6,7 11,1 14,0 17,8 16 9 39 21 WNW 1029,7 10 0 0,0
24.09.2018 20:00:00 8,3 4,2 6,9 11,7 14,2 17,9 21 12 44 24 WNW 1028,7 60 0 0,0
24.09.2018 19:00:00 9,2 4,4 8,1 12,6 14,3 17,9 28 15 48 26 W 1028,0 60 39 0,0
24.09.2018 18:00:00 10,0 4,1 9,6 13,3 14,4 17,9 24 13 55 30 WNW 1027,5 10 7 0,0
24.09.2018 17:00:00 11,6 3,0 12,0 13,9 14,2 18,0 26 14 61 33 WNW 1027,0 10 25 0,0
24.09.2018 16:00:00 12,1 2,5 13,4 13,9 14,0 18,0 35 19 64 35 WNW 1026,5 10 44 0,0
24.09.2018 15:00:00 12,2 4,3 15,3 13,6 13,8 18,0 35 19 61 33 WNW 1026,4 45 31 0,0
24.09.2018 14:00:00 11,7 4,4 14,8 13,3 13,6 18,1 34 18 61 33 WNW 1026,1 10 35 0,0
24.09.2018 13:00:00 11,1 4,4 12,3 12,8 13,4 18,1 37 20 59 32 WNW 1026,0 45 29 0,0
24.09.2018 12:00:00 10,9 5,1 13,7 12,1 13,3 18,1 36 19 57 31 WNW 1025,5 45 16 0,0
24.09.2018 11:00:00 10,0 5,1 11,9 11,5 13,2 18,2 33 18 56 30 WNW 1025,0 45 28 0,0
24.09.2018 10:00:00 9,3 5,1 10,9 10,8 13,2 18,2 35 19 59 32 WNW 1024,2 40 10 0,0
24.09.2018 09:00:00 8,5 5,0 8,6 10,4 13,3 18,2 29 16 51 28 WNW 1023,5 35 5 0,0
24.09.2018 08:00:00 8,1 5,6 7,4 10,3 13,4 18,2 27 14 46 25 WNW 1022,5 35 0 0,0
24.09.2018 07:00:00 8,1 5,7 7,4 10,4 13,5 18,3 25 13 45 24 WNW 1021,4 30 0 0,0
24.09.2018 06:00:00 8,1 5,9 7,3 10,6 13,7 18,3 25 13 39 21 WNW 1021,1 45 0 0,0
24.09.2018 05:00:00 8,2 5,9 7,5 10,7 13,8 18,3 24 13 46 25 WNW 1020,1 10 0 0,0
24.09.2018 04:00:00 8,4 6,4 7,6 10,8 13,9 18,4 26 14 42 23 WNW 1019,0 25 0 0,0
24.09.2018 03:00:00 8,0 6,7 7,4 10,9 14,1 18,4 21 12 44 24 W 1018,0 25 0 0,0
24.09.2018 02:00:00 7,7 6,9 7,2 11,0 14,3 18,4 15 8 37 20 WNW 1016,2 10 0 0,4
24.09.2018 01:00:00 7,7 6,7 7,3 11,3 14,6 18,4 23 12 48 26 WNW 1015,0 15 0 0,5
24.09.2018 00:00:00 7,5 6,7 7,3 11,6 14,8 18,5 21 11 50 27 NNW 1013,1 8 0 0,9
23.09.2018 23:00:00 8,2 7,4 8,1 12,0 15,0 18,5 29 16 55 30 NNW 1010,2 15 0 1,1
23.09.2018 22:00:00 8,7 8,0 8,7 12,7 15,1 18,5 40 22 61 33 NNW 1006,0 2,8 0 0,9
23.09.2018 21:00:00 10,4 10,2 10,5 13,0 15,2 18,5 26 14 39 21 N 1002,6 3,0 0 0,8
23.09.2018 20:00:00 11,6 11,3 11,5 12,8 15,2 18,6 6 3 44 24 S 999,5 10 0 3,9
23.09.2018 19:00:00 11,3 11,0 11,3 12,8 16,1 18,6 29 16 41 22 ENE 1000,2 2,8 0 13,0
23.09.2018 18:00:00 11,7 11,4 11,7 15,0 16,8 18,6 24 13 31 17 ENE 1000,7 4,0 0 2,1
23.09.2018 17:00:00 11,9 11,2 11,7 15,8 16,9 18,6 14 8 35 19 ENE 1003,4 12 0 2,5
23.09.2018 16:00:00 12,0 10,8 12,3 16,3 16,8 18,7 23 12 35 19 SE 1005,4 7 0 0,4
23.09.2018 15:00:00 11,9 10,0 12,2 16,5 16,7 18,7 15 8 31 17 SE 1008,9 10 0 0,1
23.09.2018 14:00:00 12,3 9,8 13,2 16,5 16,6 18,7 18 10 27 14 SSE 1011,2 20 0 0,0
23.09.2018 13:00:00 12,8 8,5 14,0 16,1 16,5 18,7 11 6 21 11 SE 1013,0 10 0 0,0
23.09.2018 12:00:00 12,8 7,9 14,1 15,7 16,4 18,7 13 7 21 11 SSE 1014,1 27 0 0,0
23.09.2018 11:00:00 12,3 8,8 11,9 15,1 16,3 18,8 11 6 16 9 SW 1014,9 10 0 0,1
23.09.2018 10:00:00 12,6 7,0 13,0 14,8 16,3 18,8 11 6 20 11 SW 1015,4 50 0 0,0
23.09.2018 09:00:00 12,2 7,2 12,7 14,3 16,4 18,8 16 8 22 12 SW 1015,7 60 0 0,0
23.09.2018 08:00:00 11,5 6,9 11,2 14,1 16,5 18,8 15 8 26 14 WSW 1016,2 60 0 0,0
23.09.2018 07:00:00 11,3 7,2 10,7 14,1 16,6 18,8 15 8 21 11 SW 1016,4 55 0 0,0
23.09.2018 06:00:00 10,9 7,6 9,9 14,3 16,8 18,8 12 6 22 12 SW 1016,8 55 0 0,0
23.09.2018 05:00:00 11,3 7,0 10,6 14,4 17,0 18,9 11 6 26 14 WSW 1017,4 10 0 0,0
23.09.2018 04:00:00 11,1 7,2 10,4 14,6 17,1 18,9 14 8 26 14 SW 1017,8 55 0 0,0
23.09.2018 03:00:00 11,3 7,6 10,3 14,9 17,3 18,9 9 5 31 17 WSW 1018,2 10 0 0,0
23.09.2018 02:00:00 11,9 7,1 10,5 15,3 17,5 18,9 13 7 38 20 WSW 1018,5 10 0 0,0
23.09.2018 01:00:00 13,7 5,2 12,8 15,5 17,6 18,9 18 10 31 17 WSW 1018,2 40 0 0,0
23.09.2018 00:00:00 14,2 5,3 13,0 15,6 17,8 18,9 17 9 29 16 W 1018,1 50 0 0,0
22.09.2018 23:00:00 14,0 5,1 12,6 15,7 18,0 19,0 16 9 31 17 WSW 1018,0 50 0 0,0
22.09.2018 22:00:00 12,9 5,0 11,7 16,1 18,2 19,0 11 6 16 9 SSW 1018,3 55 0 0,0
22.09.2018 21:00:00 13,1 5,4 11,6 16,5 18,4 19,0 12 7 15 8 SSW 1018,5 55 0 0,0
22.09.2018 20:00:00 14,1 5,3 11,5 17,1 18,6 19,0 4 2 8 4 SSW 1018,5 10 0 0,0
22.09.2018 19:00:00 14,9 5,0 13,0 17,8 18,7 19,0 5 3 13 7 W 1018,5 50 0 0,0
22.09.2018 18:00:00 15,3 4,8 15,0 18,3 18,7 19,0 9 5 28 15 W 1018,6 10 0 0,0
22.09.2018 17:00:00 15,6 4,4 15,8 18,8 18,6 19,1 17 9 34 18 W 1019,0 70 0 0,0
22.09.2018 16:00:00 15,6 3,9 16,7 19,0 18,5 19,1 23 12 41 22 W 1019,4 70 15 0,0
22.09.2018 15:00:00 15,4 4,5 17,8 18,7 18,3 19,1 24 13 40 22 WSW 1019,7 60 11 0,0
22.09.2018 14:00:00 15,3 5,2 17,1 18,5 18,1 19,1 22 12 42 23 W 1019,9 50 8 0,0
22.09.2018 13:00:00 14,9 4,7 16,9 18,2 17,8 19,1 22 12 45 24 W 1020,2 10 23 0,0
22.09.2018 12:00:00 14,7 5,4 17,9 17,4 17,5 19,1 24 13 48 26 W 1020,3 10 35 0,0
22.09.2018 11:00:00 13,3 5,5 15,0 16,4 17,4 19,1 26 14 48 26 W 1020,4 10 34 0,0
22.09.2018 10:00:00 13,4 5,9 16,6 15,1 17,4 19,1 24 13 50 27 W 1020,4 10 59 0,0
22.09.2018 09:00:00 12,4 6,0 14,5 13,9 17,6 19,1 22 12 40 22 WSW 1020,0 40 47 0,0
22.09.2018 08:00:00 11,0 5,5 9,4 13,6 18,0 19,1 18 10 44 24 WSW 1019,4 10 9 0,0
22.09.2018 07:00:00 10,5 5,5 8,5 13,9 18,3 19,1 16 9 36 19 SW 1019,0 10 0 0,0
22.09.2018 06:00:00 11,0 5,8 9,0 14,3 18,7 19,0 20 11 34 18 SW 1018,6 60 0 0,0
22.09.2018 05:00:00 10,8 5,7 8,4 14,7 19,2 19,0 21 12 31 17 SW 1018,1 50 0 0,0
22.09.2018 04:00:00 10,8 6,0 8,3 15,3 19,6 19,0 20 11 27 14 SSW 1017,8 50 0 0,0
22.09.2018 03:00:00 11,3 6,8 8,5 16,0 20,0 19,0 15 8 27 15 SW 1016,9 40 0 0,0
22.09.2018 02:00:00 12,2 8,1 9,8 16,8 20,5 19,0 15 8 30 16 W 1016,6 10 0 0,0
22.09.2018 01:00:00 12,9 9,5 11,1 17,4 20,9 19,0 18 10 31 17 W 1016,1 40 0 0,0
22.09.2018 00:00:00 13,1 10,4 11,7 18,0 21,4 19,0 19 10 35 19 W 1015,4 40 0 0,0
21.09.2018 23:00:00 12,9 10,4 11,6 18,9 21,9 19,0 13 7 25 13 W 1014,2 10 0 0,0
21.09.2018 22:00:00 12,9 10,5 12,1 19,8 22,5 19,0 15 8 28 15 W 1013,8 10 0 0,6
21.09.2018 21:00:00 13,1 11,3 12,4 20,9 23,0 19,0 21 12 33 18 WNW 1012,6 3,5 0 0,3
21.09.2018 20:00:00 14,2 11,5 13,4 22,4 23,4 19,0 18 10 35 19 NW 1010,8 10 0 0,0
21.09.2018 19:00:00 16,7 12,9 15,6 24,4 23,7 19,0 30 16 56 30 NW 1008,4 4,2 0 0,6
21.09.2018 18:00:00 21,2 14,9 17,8 26,5 23,7 19,0 24 13 82 44 WSW 1006,3 5 0 0,0
21.09.2018 17:00:00 28,2 11,3 28,0 27,4 23,5 18,9 25 14 47 25 SW 1004,8 45 10 0,0
21.09.2018 16:00:00 29,0 11,1 30,4 27,8 23,0 18,9 24 13 57 31 WSW 1005,2 10 48 0,0
21.09.2018 15:00:00 30,5 11,4 34,8 27,3 22,5 18,9 24 13 41 22 SSW 1005,8 10 47 0,0
21.09.2018 14:00:00 28,8 11,8 31,6 26,8 22,0 18,9 20 11 41 22 S 1006,7 40 47 0,0
21.09.2018 13:00:00 28,9 10,6 32,0 26,0 21,4 18,9 26 14 41 22 SSW 1007,3 10 60 0,0
21.09.2018 12:00:00 27,8 11,5 32,2 24,4 20,9 18,9 21 11 36 20 S 1008,4 10 60 0,0
21.09.2018 11:00:00 25,1 11,6 29,0 22,5 20,6 18,9 22 12 35 19 SSE 1009,5 10 60 0,0
21.09.2018 10:00:00 23,2 12,3 25,1 21,0 20,5 18,9 22 12 29 16 S 1010,5 40 60 0,0
21.09.2018 09:00:00 21,7 12,2 23,0 19,6 20,5 18,9 20 11 27 15 SSE 1010,8 40 60 0,0
21.09.2018 08:00:00 19,5 12,2 18,4 19,0 20,7 18,8 15 8 30 16 SSE 1011,3 10 43 0,0
21.09.2018 07:00:00 18,4 12,3 16,1 19,2 21,0 18,8 18 10 29 16 SSE 1011,7 40 0 0,0
21.09.2018 06:00:00 18,4 12,1 15,9 19,5 21,2 18,8 15 8 25 14 SSE 1012,3 40 0 0,0
21.09.2018 05:00:00 19,1 12,1 16,4 19,9 21,5 18,8 16 9 22 12 SSE 1012,6 10 0 0,0
21.09.2018 04:00:00 20,2 12,4 17,2 20,3 21,8 18,8 13 7 22 12 SSE 1013,0 10 0 0,0
21.09.2018 03:00:00 20,2 12,4 17,8 20,7 22,0 18,8 15 8 21 11 S 1013,4 10 0 0,0
21.09.2018 02:00:00 20,7 12,6 18,3 21,1 22,3 18,7 13 7 21 11 S 1013,8 10 0 0,0
21.09.2018 01:00:00 20,9 12,5 18,7 21,6 22,6 18,7 16 9 23 13 S 1014,2 10 0 0,0
21.09.2018 00:00:00 21,6 12,5 19,3 22,1 22,9 18,7 16 9 31 17 S 1014,7 10 0 0,0
20.09.2018 23:00:00 21,8 12,4 19,1 22,7 23,3 18,7 15 8 22 12 S 1015,0 10 0 0,0
20.09.2018 22:00:00 22,1 12,2 19,3 23,4 23,6 18,7 14 8 18 10 S 1015,2 40 0 0,0
20.09.2018 21:00:00 22,8 12,0 19,4 24,4 23,9 18,7 11 6 19 10 S 1015,4 10 0 0,0
20.09.2018 20:00:00 25,8 12,2 20,0 25,7 24,1 18,7 9 5 12 7 SSW 1015,0 10 0 0,0
20.09.2018 19:00:00 27,6 11,9 25,0 27,1 24,1 18,7 8 4 27 14 WSW 1014,9 10 50 0,0
20.09.2018 18:00:00 29,5 11,3 31,1 27,9 23,9 18,7 16 9 28 15 W 1014,9 10 60 0,0
20.09.2018 17:00:00 30,2 11,8 32,8 28,3 23,6 18,7 16 9 29 16 SW 1015,0 10 53 0,0

tt = temperature
td = dewpoint
tt 5cm = temperature 5cm
tt -5cm = temperature -5cm
tt -20cm = temperature -20cm
tt -100cm = temperature -100cm
ff = wind speed
fx = gusts
dd = wind direction
ppp = reduced air pressure
vv = visibility
sd = sunshine duration
rr = precipitation

Next stations